SCP
0 0 0 -0 -0 0 0 -0 -0 0 0 0 -0 -0 -0 -0 -0 -0 -0 -0 -0 -0 -0 -0 -0 -0 -0 -0 -0 -0 -0 -0 -0 -0 -0 -0 -0 -0 -0 -0 -0 -0 -0
-0 -0 -0 0 0 0 -0 -0 -0 0 0 -0 -0 -0 -0 -0 -0 -0 -0 -0 -0 -0 -0 -0 -0 -0 -0 -0 -0 -0 -0 -0 0 0 -0 -0 -0 -0 -0 -0 -0 -0 -0
-0 -0 -0 0 0 0 -0 -0 -0 -0 -0 -0 -0 -0 -0 -0 -0 -0 -0 -0 -0 -0 -0 -0 -0 -0 -0 -0 -0 -0 -0 -0 0 0 -0 -0 -0 -0 -0 -0 -0 -0 -0
0 0 0 0 0 -0 -0 -0 -0 -0 -0 -0 -0 -0 -0 -0 -0 -0 -0 -0 -0 -0 -0 -0 -0 -0 -0 -0 -0 -0 -0 -0 -0 -0 -0 -0 -0 -0 -0 -0 -0 -0 -0
-0 -0 -0 0 0 -0 -0 -0 -0 -0 -0 -0 -0 -0 -0 -0 -0 -0 -0 -0 -0 -0 -0 -0 -0 -0 -0 -0 -0 -0 -0 -0 -0 -0 -0 -0 -0 -0 -0 -0 -0 -0 -0
-0 0 -0 -0 -0 -0 -0 -0 -0 -0 -0 -0 -0 -0 -0 -0 -0 -0 -0 -0 -0 -0 -0 -0 -0 -0 -0 -0 -0 -0 -0 -0 -0 -0 -0 -0 -0 -0 -0 -0 -0 -0 -0
-0 -0 -0 -0 -0 -0 -0 -0 -0 -0 -0 -0 -0 -0 -0 -0 -0 -0 -0 -0 -0 -0 -0 -0 -0 -0 -0 -0 -0 -0 -0 -0 -0 -0 -0 -0 -0 -0 -0 -0 -0 -0 -0
-0 -0 -0 -0 -0 -0 -0 -0 -0 -0 -0 -0 -0 -0 -0 -0 -0 -0 -0 -0 -0 -0 -0 -0 -0 -0 -0 -0 -0 -0 -0 -0 -0 -0 -0 -0 -0 -0 -0 -0 -0 -0 -0
-0 -0 -0 -0 -0 -0 -0 -0 -0 -0 -0 -0 -0 -0 -0 -0 -0 -0 -0 -0 -0 -0 -0 -0 -0 -0 -0 -0 -0 -0 -0 -0 -0 -0 -0 0 -0 -0 -0 -0 -0 -0 -0
-0 -0 -0 -0 -0 -0 -0 -0 -0 -0 -0 -0 -0 -0 -0 -0 -0 -0 -0 -0 -0 -0 -0 -0 -0 -0 -0 -0 -0 -0 -0 -0 -0 0 0 0 0 -0 -0 -0 -0 -0 -0
-0 -0 -0 -0 -0 -0 -0 -0 -0 -0 -0 -0 -0 -0 -0 -0 -0 -0 -0 -0 -0 -0 -0 -0 -0 -0 -0 -0 -0 -0 -0 0 0 0 0 0 0 -0 -0 -0 -0 -0 0
-0 -0 -0 -0 -0 -0 0 -0 -0 -0 -0 -0 -0 -0 -0 -0 -0 -0 -0 0 -0 -0 -0 -0 -0 -0 0 0 0 0 0 0 0 0 0 0 0 0 -0 -0 0 0 0
-0 -0 -0 0 -0 -0 -0 0 0 0 0 0 -0 -0 0 0 0 0 0 0 0 0 0 0 0 0 0 0 0 0 0 0 0 0 0 0 0 0 0 0 0 0 0
-0 -0 -0 -0 -0 -0 0 0 0 0 0 0 0 0 0 0 0 0 0 0 0 0 0 0 0 0 0 0 0 0 0 0 0 0 0 0 0 0 0 0 0 0 0
-0 -0 -0 0 -0 0 0 0 0 0 0 0 0 0 0 0 0 0 0 0 0 0 0 0 0 0 0 0 0 0 0 0 0 0 0 0 0 0 0 0 0 0 0
-0 -0 -0 0 0 0 0 0 0 0 0 0 0 0 0 0 0 0 0 0 0 0 0 0 0 0 0 0 0 0 0 0 0 0 0 0 0 0 0 0 0 0 0
-0 -0 -0 -0 0 0 0 0 0 0 0 0 0 0 0 0 0 0 0 0 0 0 0 0 0 0 0 0 0 0 0 0 0 0 0 0 0 0 0 0 0 0 0
-0 -0 0 0 0 0 0 0 0 0 0 0 0 0 0 0 0 0 0 0 0 0 0 0 0 0 0 0 0 0 0 0 0 0 0 0 0 0 0 0 0 0 0
-0 0 0 0 0 0 0 0 0 0 0 0 0 0 0 0 0 0 0 0 0 0 0 0 0 0 0 0 0 0 0 0 0 0 0 0 0 0 0 0 0 0 0
0 0 0 0 0 0 0 0 0 0 0 0 0 0 0 0 0 0 0 0 0 0 0 0 0 0 0 0 0 0 0 0 0 0 0 0 0 0 0 0 0 0 0
0 0 0 0 0 0 0 0 0 0 0 0 0 0 0 0 0 0 0 0 0 0 0 0 0 0 0 0 0 0 0 0 0 0 0 0 0 0 0 0 0 0 0
0 0 0 0 0 0 0 0 0 0 0 0 0 0 0 0 0 0 0 0 0 0 0 0 0 0 0 0 0 0 0 0 0 0 0 0 0 0 0 0 0 0 0
0 0 0 0 0 0 0 0 0 0 0 0 0 0 0 0 0 0 0 0 0 0 0 0 0 0 0 0 0 0 0 0 0 0 0 0 0 0 0 0 0 0 0
0 0 0 0 0 0 0 0 0 0 0 0 0 0 0 0 0 0 0 0 0 0 0 0 0 0 0 0 0 0 0 0 0 0 0 0 0 0 0 0 0 0 0
0 0 0 0 0 0 0 0 0 0 0 0 0 0 0 0 0 0 0 0 0 0 0 0 0 0 0 0 0 0 0 0 0 0 0 0 0 0 0 0 0 0 0
0 0 0 0 0 0 0 0 0 0 0 0 0 0 0 0 0 0 0 0 0 0 0 0 0 0 0 0 0 0 0 0 0 0 0 0 0 0 0 0 0 0 0
Wind_Speed_500mb
32 36 28 31 28 26 23 18 19 22 25 27 27 27 28 28 30 31 31 33 39 39 34 31 31 32 36 33 35 39 39 36 38 33 28 28 29 29 30 30 33 35 34
36 32 27 27 29 25 23 21 22 17 24 27 29 30 30 28 28 28 29 32 43 32 26 26 29 33 31 32 35 36 39 42 44 42 35 33 32 31 29 27 30 31 26
35 30 31 28 28 24 24 22 22 16 22 26 28 29 29 28 27 26 26 31 37 28 24 25 27 29 30 32 35 37 40 44 54 48 45 42 40 36 34 33 33 34 32
31 31 33 31 28 25 25 23 20 16 20 23 26 27 27 26 27 25 25 27 31 29 27 25 27 29 30 33 37 39 39 45 49 40 38 41 42 43 40 39 39 38 38
30 29 31 32 29 27 25 22 19 16 19 22 23 23 23 23 23 23 24 24 28 26 25 29 28 30 32 35 38 40 43 51 40 39 45 47 47 44 44 43 44 44 46
30 27 32 31 29 25 23 22 19 16 19 20 20 21 22 22 21 21 21 22 21 22 27 27 28 29 31 33 36 38 51 46 39 40 41 44 50 48 48 49 50 51 48
32 29 35 34 31 27 24 22 18 15 18 16 18 19 20 20 20 19 19 21 21 23 24 25 26 27 29 32 34 38 50 42 34 42 49 48 47 48 46 49 44 48 51
32 31 38 35 31 28 26 23 20 17 15 17 16 16 17 19 19 20 20 21 21 22 23 23 24 27 29 31 33 35 46 35 46 37 39 40 36 41 39 36 33 41 44
31 30 34 37 34 30 27 24 20 17 15 15 14 13 13 16 17 21 23 23 22 22 22 22 24 26 28 30 31 31 36 38 35 33 30 36 37 41 42 34 36 42 42
34 33 34 34 37 34 31 27 23 20 19 17 14 12 11 13 14 19 23 24 23 23 23 23 24 25 27 29 31 32 29 33 38 40 45 44 40 41 41 36 33 41 43
39 37 36 35 33 32 31 31 27 23 21 21 18 15 13 13 15 16 18 18 17 18 22 24 26 27 28 29 27 24 26 43 47 46 43 38 38 45 46 36 32 41 42
57 47 40 38 37 33 34 33 31 29 26 24 24 21 18 17 17 17 17 16 14 12 14 18 21 24 25 27 25 27 25 35 43 43 38 37 47 39 31 24 23 33 33
58 57 56 56 49 47 40 36 34 33 31 29 28 26 27 25 15 19 19 19 14 11 6 9 14 16 18 19 19 23 29 35 44 50 48 40 37 30 30 32 31 30 30
47 55 61 56 53 42 48 43 37 37 35 35 36 31 34 33 26 24 23 21 18 16 8 5 8 11 14 16 16 19 26 30 41 41 40 35 39 33 33 33 29 26 28
47 50 60 59 56 56 56 51 47 39 41 39 37 38 40 35 35 30 27 25 25 22 20 16 17 14 16 17 18 20 28 31 32 35 35 28 31 34 31 24 27 27 27
50 51 55 60 60 48 51 53 55 54 44 41 44 41 44 40 42 37 36 30 32 30 29 27 24 14 20 19 17 24 29 30 31 34 31 26 33 32 14 21 25 27 28
56 52 55 59 61 60 54 49 46 51 57 52 46 47 45 47 44 42 41 41 39 33 39 36 27 13 18 20 20 29 31 30 32 32 32 26 19 13 9 8 12 16 25
56 60 59 63 62 64 62 58 53 51 47 55 52 56 56 58 54 48 50 48 43 41 42 46 35 25 22 25 27 34 34 34 33 31 28 24 21 14 9 5 5 9 17
59 61 66 68 67 66 64 64 62 59 58 56 57 56 63 63 59 56 55 56 52 53 43 47 44 33 27 32 32 36 37 36 34 31 29 25 19 14 9 5 2 4 7
62 65 67 71 70 69 69 69 68 68 67 68 60 64 63 73 70 67 63 59 58 63 52 54 53 40 32 32 39 41 41 40 37 35 32 26 20 15 10 6 4 4 5
66 71 74 75 75 74 76 76 76 75 72 75 74 72 62 74 78 75 73 70 64 63 57 54 58 49 44 42 46 43 39 40 40 39 34 28 23 18 14 12 9 8 7
67 73 76 79 78 78 78 76 76 73 73 75 73 80 76 75 77 77 74 73 71 72 69 68 67 63 57 50 53 45 30 37 43 41 38 34 28 23 20 16 12 11 11
70 72 74 78 81 80 78 77 75 71 75 79 77 76 79 79 76 76 77 75 76 76 88 72 75 77 63 57 63 45 22 21 42 48 44 38 33 30 26 21 18 15 14
68 70 74 75 80 80 79 81 82 81 81 78 75 74 77 80 78 77 77 78 85 78 78 83 83 80 70 63 69 70 45 32 28 24 49 46 41 37 31 27 23 19 17
53 60 67 72 76 78 80 81 82 84 80 75 75 76 75 79 77 76 79 77 78 74 82 76 84 80 76 72 72 80 72 44 33 22 27 50 51 44 37 33 28 23 21
38 45 52 64 70 73 78 80 84 86 81 77 78 76 75 80 80 82 80 84 85 81 94 96 75 94 81 76 75 83 87 72 51 36 30 31 39 42 42 36 30 29 27
Wind_Direction_500mb
178 166 151 145 146 142 134 123 97 89 88 87 89 95 100 99 99 99 98 96 95 92 101 102 99 91 88 91 86 82 80 86 82 78 84 84 82 82 76 77 77 74 75
168 167 159 151 151 149 149 128 109 100 91 90 93 95 99 98 99 100 101 99 98 106 106 103 99 91 89 88 84 80 80 79 78 69 74 81 80 79 75 72 74 74 73
164 172 167 159 153 154 150 130 115 108 93 90 92 93 94 95 95 96 99 102 105 114 113 109 96 88 87 85 83 84 87 85 77 69 64 66 71 74 74 72 71 71 71
160 170 168 163 157 158 152 137 129 111 101 99 97 92 90 91 93 96 99 105 108 110 109 100 91 90 87 87 87 87 87 87 85 82 81 76 71 71 72 71 70 69 69
160 162 176 162 161 161 156 148 136 127 120 115 106 96 89 87 91 93 95 102 109 109 101 92 92 89 91 94 94 94 90 83 83 82 78 72 71 71 73 72 71 68 65
162 163 172 166 169 168 162 158 150 136 133 129 116 100 87 81 83 89 96 102 102 96 93 94 94 94 94 94 94 93 90 86 86 78 72 73 68 68 67 66 66 68 68
169 175 174 172 176 174 169 166 162 152 140 140 122 104 91 86 85 90 99 103 103 101 99 100 99 99 99 97 95 95 97 97 102 94 86 81 81 80 78 79 81 76 75
176 180 179 178 179 180 177 174 171 163 145 148 140 120 101 92 91 91 100 108 108 107 108 107 106 105 103 102 101 102 100 89 89 92 92 98 99 89 84 81 77 75 75
184 176 187 183 185 186 184 182 182 173 169 163 153 133 115 106 99 93 94 99 104 106 105 105 105 106 107 107 107 106 109 105 101 101 89 98 89 85 80 81 71 69 67
192 185 187 188 192 192 191 188 190 190 190 186 174 165 142 124 113 101 97 94 95 99 103 106 108 110 111 112 113 114 108 108 101 90 83 82 85 85 88 84 79 72 63
198 193 193 192 194 195 202 197 197 199 196 193 195 190 177 158 147 137 116 104 94 93 99 105 109 110 111 110 111 102 101 103 103 99 97 91 91 92 100 92 79 67 62
196 191 197 199 195 194 196 210 203 205 207 209 212 205 200 185 174 165 148 131 119 97 102 108 112 117 118 118 118 109 103 123 117 108 99 103 103 102 106 98 68 60 51
206 205 203 200 198 201 209 213 205 214 211 213 219 210 189 197 212 210 194 176 164 135 118 136 139 141 142 139 135 123 117 126 122 117 121 120 110 104 94 86 71 60 36
211 212 212 212 212 210 215 209 209 216 214 216 219 217 208 211 219 227 224 210 212 201 204 238 207 174 164 154 147 140 137 130 132 129 134 127 110 98 94 94 80 46 33
211 218 217 213 209 213 217 215 207 209 224 218 221 223 219 224 216 230 227 231 228 219 204 219 212 219 194 175 165 159 156 146 143 142 143 142 116 116 107 98 79 69 49
213 216 222 217 216 214 222 219 217 219 215 225 226 228 227 233 230 231 233 234 233 229 220 206 202 216 220 192 183 170 165 159 151 153 155 158 146 147 113 90 88 80 73
218 216 223 224 224 221 223 222 222 228 225 225 230 229 231 237 231 234 233 232 228 235 230 220 213 221 251 218 197 178 173 170 166 163 159 159 158 160 156 102 78 67 77
219 220 221 228 228 227 229 229 229 223 226 224 229 228 230 234 235 234 233 235 236 235 235 242 212 215 236 222 200 186 182 179 176 172 172 172 175 178 180 143 78 61 72
224 225 224 231 231 231 232 233 234 233 230 227 224 231 228 230 235 236 235 237 236 236 243 224 215 208 240 219 212 197 189 186 183 185 189 190 187 187 184 156 98 12 16
229 228 230 232 233 232 234 234 235 235 235 234 225 226 235 225 232 238 238 240 239 228 237 231 210 210 229 222 216 202 196 193 193 196 198 197 196 196 192 195 232 293 330
236 233 232 232 234 232 233 233 235 236 237 240 233 232 230 230 230 235 237 239 239 237 239 229 214 213 212 225 215 204 200 201 203 204 205 204 206 207 209 218 235 264 288
240 239 235 236 236 235 236 238 238 240 240 243 241 239 239 237 233 231 232 234 238 236 233 237 220 216 212 223 220 207 203 213 215 212 211 213 213 215 220 226 239 257 276
240 240 242 241 240 238 237 238 239 239 240 242 245 241 238 236 233 231 229 233 240 236 236 233 234 222 222 220 220 210 191 217 218 221 219 219 219 223 226 230 240 253 269
249 244 242 241 240 239 238 237 241 243 246 250 249 245 239 234 232 227 226 231 239 233 236 240 244 222 223 234 218 212 210 201 193 208 221 223 223 227 229 233 240 249 264
251 246 243 240 240 240 239 240 242 246 247 248 247 246 240 233 232 228 226 230 231 238 244 238 228 227 226 237 235 223 215 217 207 217 209 218 222 225 230 234 240 249 260
249 246 243 241 242 241 242 242 242 246 244 244 247 247 242 235 230 226 226 230 236 231 242 244 245 232 231 235 235 233 227 220 221 210 220 225 222 224 227 233 241 251 258
Wind_Speed_850mb
32 36 28 31 28 26 23 18 19 22 25 27 27 27 28 28 30 31 31 33 39 39 34 31 31 32 36 33 35 39 39 36 38 33 28 28 29 29 30 30 33 35 34
36 32 27 27 29 25 23 21 22 17 24 27 29 30 30 28 28 28 29 32 43 32 26 26 29 33 31 32 35 36 39 42 44 42 35 33 32 31 29 27 30 31 26
35 30 31 28 28 24 24 22 22 16 22 26 28 29 29 28 27 26 26 31 37 28 24 25 27 29 30 32 35 37 40 44 54 48 45 42 40 36 34 33 33 34 32
31 31 33 31 28 25 25 23 20 16 20 23 26 27 27 26 27 25 25 27 31 29 27 25 27 29 30 33 37 39 39 45 49 40 38 41 42 43 40 39 39 38 38
30 29 31 32 29 27 25 22 19 16 19 22 23 23 23 23 23 23 24 24 28 26 25 29 28 30 32 35 38 40 43 51 40 39 45 47 47 44 44 43 44 44 46
30 27 32 31 29 25 23 22 19 16 19 20 20 21 22 22 21 21 21 22 21 22 27 27 28 29 31 33 36 38 51 46 39 40 41 44 50 48 48 49 50 51 48
32 29 35 34 31 27 24 22 18 15 18 16 18 19 20 20 20 19 19 21 21 23 24 25 26 27 29 32 34 38 50 42 34 42 49 48 47 48 46 49 44 48 51
32 31 38 35 31 28 26 23 20 17 15 17 16 16 17 19 19 20 20 21 21 22 23 23 24 27 29 31 33 35 46 35 46 37 39 40 36 41 39 36 33 41 44
31 30 34 37 34 30 27 24 20 17 15 15 14 13 13 16 17 21 23 23 22 22 22 22 24 26 28 30 31 31 36 38 35 33 30 36 37 41 42 34 36 42 42
34 33 34 34 37 34 31 27 23 20 19 17 14 12 11 13 14 19 23 24 23 23 23 23 24 25 27 29 31 32 29 33 38 40 45 44 40 41 41 36 33 41 43
39 37 36 35 33 32 31 31 27 23 21 21 18 15 13 13 15 16 18 18 17 18 22 24 26 27 28 29 27 24 26 43 47 46 43 38 38 45 46 36 32 41 42
57 47 40 38 37 33 34 33 31 29 26 24 24 21 18 17 17 17 17 16 14 12 14 18 21 24 25 27 25 27 25 35 43 43 38 37 47 39 31 24 23 33 33
58 57 56 56 49 47 40 36 34 33 31 29 28 26 27 25 15 19 19 19 14 11 6 9 14 16 18 19 19 23 29 35 44 50 48 40 37 30 30 32 31 30 30
47 55 61 56 53 42 48 43 37 37 35 35 36 31 34 33 26 24 23 21 18 16 8 5 8 11 14 16 16 19 26 30 41 41 40 35 39 33 33 33 29 26 28
47 50 60 59 56 56 56 51 47 39 41 39 37 38 40 35 35 30 27 25 25 22 20 16 17 14 16 17 18 20 28 31 32 35 35 28 31 34 31 24 27 27 27
50 51 55 60 60 48 51 53 55 54 44 41 44 41 44 40 42 37 36 30 32 30 29 27 24 14 20 19 17 24 29 30 31 34 31 26 33 32 14 21 25 27 28
56 52 55 59 61 60 54 49 46 51 57 52 46 47 45 47 44 42 41 41 39 33 39 36 27 13 18 20 20 29 31 30 32 32 32 26 19 13 9 8 12 16 25
56 60 59 63 62 64 62 58 53 51 47 55 52 56 56 58 54 48 50 48 43 41 42 46 35 25 22 25 27 34 34 34 33 31 28 24 21 14 9 5 5 9 17
59 61 66 68 67 66 64 64 62 59 58 56 57 56 63 63 59 56 55 56 52 53 43 47 44 33 27 32 32 36 37 36 34 31 29 25 19 14 9 5 2 4 7
62 65 67 71 70 69 69 69 68 68 67 68 60 64 63 73 70 67 63 59 58 63 52 54 53 40 32 32 39 41 41 40 37 35 32 26 20 15 10 6 4 4 5
66 71 74 75 75 74 76 76 76 75 72 75 74 72 62 74 78 75 73 70 64 63 57 54 58 49 44 42 46 43 39 40 40 39 34 28 23 18 14 12 9 8 7
67 73 76 79 78 78 78 76 76 73 73 75 73 80 76 75 77 77 74 73 71 72 69 68 67 63 57 50 53 45 30 37 43 41 38 34 28 23 20 16 12 11 11
70 72 74 78 81 80 78 77 75 71 75 79 77 76 79 79 76 76 77 75 76 76 88 72 75 77 63 57 63 45 22 21 42 48 44 38 33 30 26 21 18 15 14
68 70 74 75 80 80 79 81 82 81 81 78 75 74 77 80 78 77 77 78 85 78 78 83 83 80 70 63 69 70 45 32 28 24 49 46 41 37 31 27 23 19 17
53 60 67 72 76 78 80 81 82 84 80 75 75 76 75 79 77 76 79 77 78 74 82 76 84 80 76 72 72 80 72 44 33 22 27 50 51 44 37 33 28 23 21
38 45 52 64 70 73 78 80 84 86 81 77 78 76 75 80 80 82 80 84 85 81 94 96 75 94 81 76 75 83 87 72 51 36 30 31 39 42 42 36 30 29 27
Wind_Direction_850mb
178 166 151 145 146 142 134 123 97 89 88 87 89 95 100 99 99 99 98 96 95 92 101 102 99 91 88 91 86 82 80 86 82 78 84 84 82 82 76 77 77 74 75
168 167 159 151 151 149 149 128 109 100 91 90 93 95 99 98 99 100 101 99 98 106 106 103 99 91 89 88 84 80 80 79 78 69 74 81 80 79 75 72 74 74 73
164 172 167 159 153 154 150 130 115 108 93 90 92 93 94 95 95 96 99 102 105 114 113 109 96 88 87 85 83 84 87 85 77 69 64 66 71 74 74 72 71 71 71
160 170 168 163 157 158 152 137 129 111 101 99 97 92 90 91 93 96 99 105 108 110 109 100 91 90 87 87 87 87 87 87 85 82 81 76 71 71 72 71 70 69 69
160 162 176 162 161 161 156 148 136 127 120 115 106 96 89 87 91 93 95 102 109 109 101 92 92 89 91 94 94 94 90 83 83 82 78 72 71 71 73 72 71 68 65
162 163 172 166 169 168 162 158 150 136 133 129 116 100 87 81 83 89 96 102 102 96 93 94 94 94 94 94 94 93 90 86 86 78 72 73 68 68 67 66 66 68 68
169 175 174 172 176 174 169 166 162 152 140 140 122 104 91 86 85 90 99 103 103 101 99 100 99 99 99 97 95 95 97 97 102 94 86 81 81 80 78 79 81 76 75
176 180 179 178 179 180 177 174 171 163 145 148 140 120 101 92 91 91 100 108 108 107 108 107 106 105 103 102 101 102 100 89 89 92 92 98 99 89 84 81 77 75 75
184 176 187 183 185 186 184 182 182 173 169 163 153 133 115 106 99 93 94 99 104 106 105 105 105 106 107 107 107 106 109 105 101 101 89 98 89 85 80 81 71 69 67
192 185 187 188 192 192 191 188 190 190 190 186 174 165 142 124 113 101 97 94 95 99 103 106 108 110 111 112 113 114 108 108 101 90 83 82 85 85 88 84 79 72 63
198 193 193 192 194 195 202 197 197 199 196 193 195 190 177 158 147 137 116 104 94 93 99 105 109 110 111 110 111 102 101 103 103 99 97 91 91 92 100 92 79 67 62
196 191 197 199 195 194 196 210 203 205 207 209 212 205 200 185 174 165 148 131 119 97 102 108 112 117 118 118 118 109 103 123 117 108 99 103 103 102 106 98 68 60 51
206 205 203 200 198 201 209 213 205 214 211 213 219 210 189 197 212 210 194 176 164 135 118 136 139 141 142 139 135 123 117 126 122 117 121 120 110 104 94 86 71 60 36
211 212 212 212 212 210 215 209 209 216 214 216 219 217 208 211 219 227 224 210 212 201 204 238 207 174 164 154 147 140 137 130 132 129 134 127 110 98 94 94 80 46 33
211 218 217 213 209 213 217 215 207 209 224 218 221 223 219 224 216 230 227 231 228 219 204 219 212 219 194 175 165 159 156 146 143 142 143 142 116 116 107 98 79 69 49
213 216 222 217 216 214 222 219 217 219 215 225 226 228 227 233 230 231 233 234 233 229 220 206 202 216 220 192 183 170 165 159 151 153 155 158 146 147 113 90 88 80 73
218 216 223 224 224 221 223 222 222 228 225 225 230 229 231 237 231 234 233 232 228 235 230 220 213 221 251 218 197 178 173 170 166 163 159 159 158 160 156 102 78 67 77
219 220 221 228 228 227 229 229 229 223 226 224 229 228 230 234 235 234 233 235 236 235 235 242 212 215 236 222 200 186 182 179 176 172 172 172 175 178 180 143 78 61 72
224 225 224 231 231 231 232 233 234 233 230 227 224 231 228 230 235 236 235 237 236 236 243 224 215 208 240 219 212 197 189 186 183 185 189 190 187 187 184 156 98 12 16
229 228 230 232 233 232 234 234 235 235 235 234 225 226 235 225 232 238 238 240 239 228 237 231 210 210 229 222 216 202 196 193 193 196 198 197 196 196 192 195 232 293 330
236 233 232 232 234 232 233 233 235 236 237 240 233 232 230 230 230 235 237 239 239 237 239 229 214 213 212 225 215 204 200 201 203 204 205 204 206 207 209 218 235 264 288
240 239 235 236 236 235 236 238 238 240 240 243 241 239 239 237 233 231 232 234 238 236 233 237 220 216 212 223 220 207 203 213 215 212 211 213 213 215 220 226 239 257 276
240 240 242 241 240 238 237 238 239 239 240 242 245 241 238 236 233 231 229 233 240 236 236 233 234 222 222 220 220 210 191 217 218 221 219 219 219 223 226 230 240 253 269
249 244 242 241 240 239 238 237 241 243 246 250 249 245 239 234 232 227 226 231 239 233 236 240 244 222 223 234 218 212 210 201 193 208 221 223 223 227 229 233 240 249 264
251 246 243 240 240 240 239 240 242 246 247 248 247 246 240 233 232 228 226 230 231 238 244 238 228 227 226 237 235 223 215 217 207 217 209 218 222 225 230 234 240 249 260
249 246 243 241 242 241 242 242 242 246 244 244 247 247 242 235 230 226 226 230 236 231 242 244 245 232 231 235 235 233 227 220 221 210 220 225 222 224 227 233 241 251 258